This demonstration page uses our WeatherBlox Daily Observations layout. Learn more.

Left ArrowRight Arrow

38.83388, -104.82136

Hourly Observations for January 17, 2017

Temp ( °F °C ) Dew Point ( °F °C ) Humidity (%) Winds ( mph kmh ) Pressure ( in mb ) Visibility ( mi km ) Precip ( " mm )
12:13 am 00:13 Mostly Cloudy with Light Snow Showers 27 -3 27 -3 100 100 Calm 30.15 1021 1 1 0.00 0.00
12:28 am 00:28 Mostly Cloudy with Patchy Fog 27 -3 27 -3 100 100 Calm 30.15 1021 3 5 0.00 0.00
12:58 am 00:58 Mostly Cloudy with Fog 27 -2.6 27 -2.7 99 99 N 3 6 29.83 1010 1 2 0.00 0.00
1:58 am 01:58 Mostly Cloudy with Fog 27 -2.6 27 -2.6 100 100 Calm 29.83 1010 3 5 0.00 0.00
2:13 am 02:13 Mostly Cloudy with Freezing Fog 27 -3 27 -3 100 100 WNW 3 6 30.15 1021 1 1 0.00 0.00
2:25 am 02:25 Mostly Cloudy with Light Snow 27 -3 27 -3 100 100 Calm 30.15 1021 7 11 0.00 0.00
2:35 am 02:35 Mostly Cloudy with Light Snow 27 -3 27 -3 100 100 Calm 30.15 1021 5 8 0.00 0.00
2:40 am 02:40 Mostly Cloudy with Light Snow 27 -3 27 -3 100 100 Calm 30.15 1021 3 5 0.00 0.00
2:45 am 02:45 Mostly Cloudy with Light Snow 27 -3 27 -3 100 100 Calm 30.15 1021 1 2 0.00 0.00
2:58 am 02:58 Mostly Cloudy with Light Snow 27 -2.6 27 -2.8 99 99 Calm 29.82 1010 1 2 0.00 0.00
3:17 am 03:17 Mostly Cloudy with Fog 27 -3 27 -3 100 100 N 3 6 30.12 1020 1 2 0.00 0.00
3:58 am 03:58 Mostly Cloudy with Patchy Fog 27 -2.7 27 -2.8 99 99 Calm 29.83 1010 5 8 0.00 0.00
4:08 am 04:08 Mostly Cloudy with Patchy Fog 27 -3 27 -3 100 100 Calm 30.12 1020 5 8 0.00 0.00
4:18 am 04:18 Mostly Cloudy with Fog 27 -3 27 -3 100 100 Calm 30.12 1020 3 5 0.00 0.00
4:28 am 04:28 Mostly Cloudy with Freezing Fog 27 -3 27 -3 100 100 SE 3 6 30.12 1020 3 5 0.00 0.00
4:38 am 04:38 Mostly Cloudy with Freezing Fog 27 -3 27 -3 100 100 Calm 30.12 1020 1 2 0.00 0.00
4:48 am 04:48 Mostly Cloudy with Freezing Fog 27 -3 27 -3 100 100 Calm 30.09 1019 1 2 0.00 0.00
4:58 am 04:58 Mostly Cloudy with Freezing Fog 27 -2.8 27 -3 99 99 SSE 3 6 29.80 1009 1 2 0.00 0.00
5:13 am 05:13 Mostly Cloudy with Freezing Fog 27 -3 27 -3 100 100 SSE 5 7 30.09 1019 3 5 0.00 0.00
5:43 am 05:43 Mostly Cloudy with Mist and Fog 27 -3 27 -3 100 100 Calm 30.09 1019 1 1 0.00 0.00
5:58 am 05:58 Mostly Cloudy with Freezing Fog 26 -3.1 26 -3.4 98 98 Calm 29.80 1009 7 11 0.00 0.00
6:28 am 06:28 Mostly Cloudy with Mist and Fog 27 -3 25 -4 93 93 S 5 7 30.09 1019 2 3 0.00 0.00
6:43 am 06:43 Mostly Cloudy with Freezing Fog 27 -3 25 -4 93 93 Calm 30.09 1019 7 11 0.00 0.00
6:58 am 06:58 Mostly Cloudy with Mist and Fog 26 -3.5 26 -3.6 99 99 NNW 5 7 29.80 1009 7 11 0.00 0.00
7:13 am 07:13 Mostly Cloudy with Freezing Fog 27 -3 25 -4 93 93 NNW 9 15 30.12 1020 1 2 0.00 0.00
7:28 am 07:28 Mostly Cloudy with Freezing Fog 27 -3 25 -4 93 93 N 9 15 30.12 1020 3 5 0.00 0.00
7:58 am 07:58 Mostly Cloudy with Mist and Fog 26 -3.3 26 -3.5 99 99 NNW 7 11 29.83 1010 2 3 0.00 0.00
8:13 am 08:13 Mostly Cloudy with Mist and Fog 27 -3 27 -3 100 100 N 8 13 30.12 1020 1 2 0.00 0.00
8:58 am 08:58 Cloudy with Mist and Fog 26 -3.4 26 -3.5 99 99 N 6 9 29.85 1011 5 8 0.00 0.00
9:58 am 09:58 Mostly Cloudy 27 -2.6 28 -2.5 100 100 Calm 29.85 1011 10 16 0.00 0.00
10:08 am 10:08 Mostly Cloudy 28 -2 28 -2 100 100 Calm 30.15 1021 10 16 0.00 0.00
10:11 am 10:11 Mostly Cloudy with Light Showers 28 -2 28 -2 100 100 Calm 30.15 1021 10 16 0.00 0.00
10:28 am 10:28 Mostly Cloudy 28 -2 28 -2 100 100 Calm 30.15 1021 10 16 0.00 0.00
10:33 am 10:33 Partly Cloudy 28 -2 28 -2 100 100 Calm 30.15 1021 10 16 0.00 0.00
10:58 am 10:58 Mostly Sunny 30 -1.1 29 -1.5 97 97 E 3 6 29.84 1010 10 16 0.00 0.00
11:58 am 11:58 Sunny 33 0.8 29 -1.7 84 84 SE 5 7 29.80 1009 10 16 0.00 0.00
12:58 pm 12:58 Sunny 37 2.7 33 0.3 84 84 SSE 3 6 29.75 1007 10 16 0.00 0.00
1:58 pm 13:58 Sunny 39 3.8 33 0.5 79 79 SSE 5 7 29.72 1006 10 16 0.00 0.00
2:58 pm 14:58 Sunny 39 3.9 33 0.5 79 79 Calm 29.72 1006 10 16 0.00 0.00
3:58 pm 15:58 Sunny 37 2.9 33 0.4 84 84 Calm 29.75 1007 10 16 0.00 0.00
4:58 pm 16:58 Sunny 35 1.9 27 -3 70 70 Calm 29.76 1008 10 16 0.00 0.00
5:58 pm 17:58 Clear 37 2.7 28 -2.5 69 69 NNW 9 15 29.77 1008 10 16 0.00 0.00
6:58 pm 18:58 Clear 38 3.2 19 -7.3 46 46 NNW 9 15 29.76 1008 10 16 0.00 0.00
7:58 pm 19:58 Clear 37 3 19 -7.1 48 48 NNW 6 9 29.77 1008 10 16 0.00 0.00
8:58 pm 20:58 Clear 36 2.1 17 -8.1 47 47 Calm 29.81 1009 10 16 0.00 0.00
9:58 pm 21:58 Clear 35 1.5 17 -8.5 48 48 Calm 29.79 1009 10 16 0.00 0.00
10:58 pm 22:58 Clear 35 1.4 14 -9.8 43 43 WNW 6 9 29.78 1009 10 16 0.00 0.00
11:58 pm 23:58 Clear 33 0.6 11 -11.5 40 40 WNW 5 7 29.75 1008 10 16 0.00 0.00

Powered by AerisWeather